Time,TemperatureF,DewpointF,PressureIn,WindDirection,WindDirectionDegrees,WindSpeedMPH,WindSpeedGustMPH,Humidity,HourlyPrecipIn,Conditions,Clouds,dailyrainin,SoftwareType,DateUTC
2013-01-27 00:01:00,32.0,22.0,-100.00,North,-999,0.0,0.0,66,-99.99,,,0.00,,2013-01-27 07:01:00,
2013-01-27 00:13:00,32.0,23.0,-100.00,ESE,115,0.0,1.0,68,-99.99,,,0.00,,2013-01-27 07:13:00,
2013-01-27 00:21:00,32.0,23.0,-100.00,ESE,115,0.0,1.0,68,-99.99,,,0.00,,2013-01-27 07:21:00,
2013-01-27 00:31:00,32.0,23.0,-100.00,ESE,115,0.0,1.0,68,-99.99,,,0.00,,2013-01-27 07:31:00,
2013-01-27 00:41:00,32.0,23.0,-100.00,ESE,115,0.0,1.0,68,-99.99,,,0.00,,2013-01-27 07:41:00,
2013-01-27 00:51:00,32.0,23.0,-100.00,North,-999,0.0,0.0,69,-99.99,,,0.00,,2013-01-27 07:51:00,
2013-01-27 01:01:00,32.0,23.0,-100.00,North,-999,0.0,0.0,69,-99.99,,,0.00,,2013-01-27 08:01:00,
2013-01-27 01:11:00,32.0,23.0,-100.00,SE,125,0.0,1.0,69,-99.99,,,0.00,,2013-01-27 08:11:00,
2013-01-27 01:22:00,32.0,23.0,-100.00,SE,125,0.0,1.0,69,-99.99,,,0.00,,2013-01-27 08:22:00,
2013-01-27 01:31:00,32.0,23.0,-100.00,SE,125,0.0,1.0,69,-99.99,,,0.00,,2013-01-27 08:31:00,
2013-01-27 01:41:00,32.0,23.0,-100.00,SE,125,0.0,1.0,69,-99.99,,,0.00,,2013-01-27 08:41:00,
2013-01-27 01:52:00,32.0,24.0,-100.00,SSW,210,0.0,2.0,72,-99.99,,,0.00,,2013-01-27 08:52:00,
2013-01-27 02:02:00,32.0,24.0,-100.00,SSW,210,0.0,2.0,72,-99.99,,,0.00,,2013-01-27 09:02:00,
2013-01-27 02:11:00,33.0,25.0,-100.00,North,-999,0.0,0.0,72,-99.99,,,-99.99,,2013-01-27 09:11:00,
2013-01-27 02:21:00,33.0,25.0,-100.00,North,-999,0.0,0.0,72,-99.99,,,-99.99,,2013-01-27 09:21:00,
2013-01-27 02:32:00,33.0,25.0,-100.00,North,-999,0.0,0.0,72,-99.99,,,-99.99,,2013-01-27 09:32:00,
2013-01-27 02:41:00,33.0,25.0,-100.00,North,-999,0.0,0.0,72,-99.99,,,-99.99,,2013-01-27 09:41:00,
2013-01-27 02:51:00,31.0,24.0,-100.00,West,260,0.0,1.0,76,-99.99,,,0.00,,2013-01-27 09:51:00,
2013-01-27 03:01:00,31.0,24.0,-100.00,West,260,0.0,1.0,76,-99.99,,,0.00,,2013-01-27 10:01:00,
2013-01-27 03:11:00,32.0,26.0,-100.00,WSW,240,3.0,6.0,78,-99.99,,,0.00,,2013-01-27 10:11:00,
2013-01-27 03:21:00,32.0,26.0,-100.00,WSW,240,3.0,6.0,78,-99.99,,,0.00,,2013-01-27 10:21:00,
2013-01-27 03:31:00,32.0,26.0,-100.00,WSW,240,3.0,6.0,78,-99.99,,,0.00,,2013-01-27 10:31:00,
2013-01-27 03:41:00,32.0,26.0,-100.00,WSW,240,3.0,6.0,78,-99.99,,,0.00,,2013-01-27 10:41:00,
2013-01-27 03:51:00,31.0,25.0,-100.00,West,265,4.0,6.0,79,-99.99,,,0.00,,2013-01-27 10:51:00,
2013-01-27 04:01:00,31.0,25.0,-100.00,West,265,4.0,6.0,79,-99.99,,,0.00,,2013-01-27 11:01:00,
2013-01-27 04:11:00,30.0,25.0,-100.00,WSW,255,3.0,6.0,82,-99.99,,,0.00,,2013-01-27 11:11:00,
2013-01-27 04:21:00,30.0,25.0,-100.00,WSW,255,3.0,6.0,82,-99.99,,,0.00,,2013-01-27 11:21:00,
2013-01-27 04:32:00,30.0,25.0,-100.00,WSW,255,3.0,6.0,82,-99.99,,,0.00,,2013-01-27 11:32:00,
2013-01-27 04:42:00,30.0,25.0,-100.00,WSW,255,3.0,6.0,82,-99.99,,,0.00,,2013-01-27 11:42:00,
2013-01-27 04:52:00,30.0,26.0,-100.00,West,280,0.0,2.0,84,-99.99,,,0.00,,2013-01-27 11:52:00,
2013-01-27 05:02:00,30.0,26.0,-100.00,West,280,0.0,2.0,84,-99.99,,,0.00,,2013-01-27 12:02:00,
2013-01-27 05:11:00,31.0,27.0,-100.00,West,260,0.0,2.0,85,-99.99,,,0.00,,2013-01-27 12:11:00,
2013-01-27 05:21:00,31.0,27.0,-100.00,West,260,0.0,2.0,85,-99.99,,,0.00,,2013-01-27 12:21:00,
2013-01-27 05:32:00,31.0,27.0,-100.00,West,260,0.0,2.0,85,-99.99,,,0.00,,2013-01-27 12:32:00,
2013-01-27 05:42:00,31.0,27.0,-100.00,West,260,0.0,2.0,85,-99.99,,,0.00,,2013-01-27 12:42:00,
2013-01-27 05:52:00,31.0,26.0,-100.00,SW,230,0.0,3.0,84,-99.99,,,0.00,,2013-01-27 12:52:00,
2013-01-27 06:02:00,31.0,26.0,-100.00,SW,230,0.0,3.0,84,-99.99,,,0.00,,2013-01-27 13:02:00,
2013-01-27 06:11:00,31.0,26.0,-100.00,West,275,5.0,7.0,84,-99.99,,,0.00,,2013-01-27 13:11:00,
2013-01-27 06:22:00,31.0,26.0,-100.00,West,275,5.0,7.0,84,-99.99,,,0.00,,2013-01-27 13:22:00,
2013-01-27 06:32:00,31.0,26.0,-100.00,West,275,5.0,7.0,84,-99.99,,,0.00,,2013-01-27 13:32:00,
2013-01-27 06:42:00,31.0,26.0,-100.00,West,275,5.0,7.0,84,-99.99,,,0.00,,2013-01-27 13:42:00,
2013-01-27 06:52:00,31.0,26.0,-100.00,WSW,255,0.0,4.0,84,-99.99,,,0.00,,2013-01-27 13:52:00,
2013-01-27 07:01:00,31.0,26.0,-100.00,WSW,255,0.0,4.0,84,-99.99,,,0.00,,2013-01-27 14:01:00,
2013-01-27 07:11:00,31.0,27.0,-100.00,WSW,250,0.0,3.0,84,-99.99,,,0.00,,2013-01-27 14:11:00,
2013-01-27 07:22:00,31.0,27.0,-100.00,WSW,250,0.0,3.0,84,-99.99,,,0.00,,2013-01-27 14:22:00,
2013-01-27 07:32:00,31.0,27.0,-100.00,WSW,250,0.0,3.0,84,-99.99,,,0.00,,2013-01-27 14:32:00,
2013-01-27 07:42:00,31.0,27.0,-100.00,WSW,250,0.0,3.0,84,-99.99,,,0.00,,2013-01-27 14:42:00,
2013-01-27 07:52:00,32.0,27.0,-100.00,North,-999,0.0,0.0,83,-99.99,,,0.00,,2013-01-27 14:52:00,
2013-01-27 08:01:00,32.0,27.0,-100.00,North,-999,0.0,0.0,83,-99.99,,,0.00,,2013-01-27 15:01:00,
2013-01-27 08:11:00,32.0,27.0,-100.00,North,-999,0.0,0.0,81,-99.99,,,0.00,,2013-01-27 15:11:00,
2013-01-27 08:22:00,32.0,27.0,-100.00,North,-999,0.0,0.0,81,-99.99,,,0.00,,2013-01-27 15:22:00,
2013-01-27 08:32:00,32.0,27.0,-100.00,North,-999,0.0,0.0,81,-99.99,,,0.00,,2013-01-27 15:32:00,
2013-01-27 08:42:00,32.0,27.0,-100.00,North,-999,0.0,0.0,81,-99.99,,,0.00,,2013-01-27 15:42:00,
2013-01-27 08:52:00,32.0,27.0,-100.00,WSW,255,0.0,1.0,81,-99.99,,,0.00,,2013-01-27 15:52:00,
2013-01-27 09:02:00,32.0,27.0,-100.00,WSW,255,0.0,1.0,81,-99.99,,,0.00,,2013-01-27 16:02:00,
2013-01-27 09:11:00,32.0,27.0,-100.00,North,-999,0.0,0.0,81,-99.99,,,0.00,,2013-01-27 16:11:00,
2013-01-27 09:21:00,32.0,27.0,-100.00,North,-999,0.0,0.0,81,-99.99,,,0.00,,2013-01-27 16:21:00,
2013-01-27 09:32:00,32.0,27.0,-100.00,North,-999,0.0,0.0,81,-99.99,,,0.00,,2013-01-27 16:32:00,
2013-01-27 09:41:00,32.0,27.0,-100.00,North,-999,0.0,0.0,81,-99.99,,,0.00,,2013-01-27 16:41:00,
2013-01-27 09:52:00,33.0,28.0,-100.00,North,-999,0.0,0.0,81,-99.99,,,0.00,,2013-01-27 16:52:00,
2013-01-27 10:01:00,33.0,28.0,-100.00,North,-999,0.0,0.0,81,-99.99,,,0.00,,2013-01-27 17:01:00,
2013-01-27 10:12:00,32.0,28.0,-100.00,North,-999,0.0,0.0,84,-99.99,,,0.00,,2013-01-27 17:12:00,
2013-01-27 10:21:00,32.0,28.0,-100.00,North,-999,0.0,0.0,84,-99.99,,,0.00,,2013-01-27 17:21:00,
2013-01-27 10:32:00,32.0,28.0,-100.00,North,-999,0.0,0.0,84,-99.99,,,0.00,,2013-01-27 17:32:00,
2013-01-27 10:42:00,32.0,28.0,-100.00,North,-999,0.0,0.0,84,-99.99,,,0.00,,2013-01-27 17:42:00,
2013-01-27 10:52:00,33.0,29.0,-100.00,WSW,240,0.0,2.0,85,-99.99,,,0.00,,2013-01-27 17:52:00,
2013-01-27 11:02:00,33.0,29.0,-100.00,WSW,240,0.0,2.0,85,-99.99,,,0.00,,2013-01-27 18:02:00,
2013-01-27 11:11:00,34.0,29.0,-100.00,West,280,0.0,3.0,83,-99.99,,,0.00,,2013-01-27 18:11:00,
2013-01-27 11:22:00,34.0,29.0,-100.00,West,280,0.0,3.0,83,-99.99,,,0.00,,2013-01-27 18:22:00,
2013-01-27 11:32:00,34.0,29.0,-100.00,West,280,0.0,3.0,83,-99.99,,,0.00,,2013-01-27 18:32:00,
2013-01-27 11:41:00,34.0,29.0,-100.00,West,280,0.0,3.0,83,-99.99,,,0.00,,2013-01-27 18:41:00,
2013-01-27 11:52:00,34.0,30.0,-100.00,West,280,0.0,1.0,83,-99.99,,,0.00,,2013-01-27 18:52:00,
2013-01-27 12:02:00,34.0,30.0,-100.00,West,280,0.0,1.0,83,-99.99,,,0.00,,2013-01-27 19:02:00,
2013-01-27 12:11:00,34.0,30.0,-100.00,North,-999,0.0,0.0,85,-99.99,,,0.00,,2013-01-27 19:11:00,
2013-01-27 12:22:00,34.0,30.0,-100.00,North,-999,0.0,0.0,85,-99.99,,,0.00,,2013-01-27 19:22:00,
2013-01-27 12:32:00,34.0,30.0,-100.00,North,-999,0.0,0.0,85,-99.99,,,0.00,,2013-01-27 19:32:00,
2013-01-27 12:41:00,34.0,30.0,-100.00,North,-999,0.0,0.0,85,-99.99,,,0.00,,2013-01-27 19:41:00,
2013-01-27 13:32:00,35.0,32.0,-100.00,WSW,255,0.0,3.0,88,-99.99,,,0.00,,2013-01-27 20:32:00,
2013-01-27 13:41:00,35.0,32.0,-100.00,WSW,255,0.0,3.0,88,-99.99,,,0.00,,2013-01-27 20:41:00,
2013-01-27 13:52:00,35.0,32.0,-100.00,WSW,250,0.0,3.0,89,-99.99,,,0.00,,2013-01-27 20:52:00,
2013-01-27 14:02:00,35.0,32.0,-100.00,WSW,250,0.0,3.0,89,-99.99,,,0.00,,2013-01-27 21:02:00,
2013-01-27 14:12:00,35.0,32.0,-100.00,North,-999,0.0,0.0,89,-99.99,,,0.00,,2013-01-27 21:12:00,
2013-01-27 14:22:00,35.0,32.0,-100.00,North,-999,0.0,0.0,89,-99.99,,,0.00,,2013-01-27 21:22:00,
2013-01-27 14:32:00,35.0,32.0,-100.00,North,-999,0.0,0.0,89,-99.99,,,0.00,,2013-01-27 21:32:00,
2013-01-27 14:42:00,35.0,32.0,-100.00,North,-999,0.0,0.0,89,-99.99,,,0.00,,2013-01-27 21:42:00,
2013-01-27 14:52:00,35.0,30.0,-100.00,NNW,330,4.0,10.0,82,-99.99,,,0.00,,2013-01-27 21:52:00,
2013-01-27 15:01:00,35.0,30.0,-100.00,NNW,330,4.0,10.0,82,-99.99,,,0.00,,2013-01-27 22:01:00,
2013-01-27 15:11:00,34.0,30.0,-100.00,North,0,0.0,3.0,85,-99.99,,,0.00,,2013-01-27 22:11:00,
2013-01-27 15:21:00,34.0,30.0,-100.00,North,0,0.0,3.0,85,-99.99,,,0.00,,2013-01-27 22:21:00,
2013-01-27 15:32:00,34.0,30.0,-100.00,North,0,0.0,3.0,85,-99.99,,,0.00,,2013-01-27 22:32:00,
2013-01-27 15:42:00,34.0,30.0,-100.00,North,0,0.0,3.0,85,-99.99,,,0.00,,2013-01-27 22:42:00,
2013-01-27 15:51:00,34.0,30.0,-100.00,NNW,345,0.0,3.0,83,-99.99,,,0.00,,2013-01-27 22:51:00,
2013-01-27 16:02:00,34.0,30.0,-100.00,NNW,345,0.0,3.0,83,-99.99,,,0.00,,2013-01-27 23:02:00,
2013-01-27 16:11:00,34.0,29.0,-100.00,North,-999,0.0,0.0,84,-99.99,,,0.00,,2013-01-27 23:11:00,
2013-01-27 16:21:00,34.0,29.0,-100.00,North,-999,0.0,0.0,84,-99.99,,,0.00,,2013-01-27 23:21:00,
2013-01-27 16:32:00,34.0,29.0,-100.00,North,-999,0.0,0.0,84,-99.99,,,0.00,,2013-01-27 23:32:00,
2013-01-27 16:41:00,34.0,29.0,-100.00,North,-999,0.0,0.0,84,-99.99,,,0.00,,2013-01-27 23:41:00,
2013-01-27 16:52:00,33.0,30.0,-100.00,NE,50,0.0,4.0,88,-99.99,,,0.00,,2013-01-27 23:52:00,
2013-01-27 17:01:00,33.0,30.0,-100.00,NE,50,0.0,4.0,88,-99.99,,,0.00,,2013-01-28 00:01:00,
2013-01-27 17:11:00,32.0,30.0,-100.00,East,80,0.0,3.0,89,-99.99,,,0.00,,2013-01-28 00:11:00,
2013-01-27 17:21:00,32.0,30.0,-100.00,East,80,0.0,3.0,89,-99.99,,,0.00,,2013-01-28 00:21:00,
2013-01-27 17:32:00,32.0,30.0,-100.00,East,80,0.0,3.0,89,-99.99,,,0.00,,2013-01-28 00:32:00,
2013-01-27 17:41:00,32.0,30.0,-100.00,East,80,0.0,3.0,89,-99.99,,,0.00,,2013-01-28 00:41:00,
2013-01-27 17:51:00,32.0,30.0,-100.00,North,-999,0.0,0.0,90,-99.99,,,0.00,,2013-01-28 00:51:00,
2013-01-27 18:01:00,32.0,30.0,-100.00,North,-999,0.0,0.0,90,-99.99,,,0.00,,2013-01-28 01:01:00,
2013-01-27 18:11:00,32.0,30.0,-100.00,North,-999,0.0,0.0,90,-99.99,,,0.00,,2013-01-28 01:11:00,
2013-01-27 18:21:00,32.0,30.0,-100.00,North,-999,0.0,0.0,90,-99.99,,,0.00,,2013-01-28 01:21:00,
2013-01-27 18:32:00,32.0,30.0,-100.00,North,-999,0.0,0.0,90,-99.99,,,0.00,,2013-01-28 01:32:00,
2013-01-27 18:42:00,32.0,30.0,-100.00,North,-999,0.0,0.0,90,-99.99,,,0.00,,2013-01-28 01:42:00,
2013-01-27 18:51:00,32.0,29.0,-100.00,North,-999,0.0,0.0,90,-99.99,,,0.00,,2013-01-28 01:51:00,
2013-01-27 19:02:00,32.0,29.0,-100.00,North,-999,0.0,0.0,90,-99.99,,,0.00,,2013-01-28 02:02:00,
2013-01-27 19:11:00,32.0,29.0,-100.00,North,-999,0.0,0.0,90,-99.99,,,0.00,,2013-01-28 02:11:00,
2013-01-27 19:21:00,32.0,29.0,-100.00,North,-999,0.0,0.0,90,-99.99,,,0.00,,2013-01-28 02:21:00,
2013-01-27 19:32:00,32.0,29.0,-100.00,North,-999,0.0,0.0,90,-99.99,,,0.00,,2013-01-28 02:32:00,
2013-01-27 19:41:00,32.0,29.0,-100.00,North,-999,0.0,0.0,90,-99.99,,,0.00,,2013-01-28 02:41:00,
2013-01-27 19:52:00,32.0,29.0,-100.00,North,-999,0.0,0.0,90,-99.99,,,0.00,,2013-01-28 02:52:00,
2013-01-27 20:02:00,32.0,29.0,-100.00,North,-999,0.0,0.0,90,-99.99,,,0.00,,2013-01-28 03:02:00,
2013-01-27 20:11:00,32.0,29.0,-100.00,North,-999,0.0,0.0,90,-99.99,,,0.00,,2013-01-28 03:11:00,
2013-01-27 20:21:00,32.0,29.0,-100.00,North,-999,0.0,0.0,90,-99.99,,,0.00,,2013-01-28 03:21:00,
2013-01-27 20:32:00,32.0,29.0,-100.00,North,-999,0.0,0.0,90,-99.99,,,0.00,,2013-01-28 03:32:00,
2013-01-27 20:41:00,32.0,29.0,-100.00,North,-999,0.0,0.0,90,-99.99,,,0.00,,2013-01-28 03:41:00,
2013-01-27 20:52:00,32.0,29.0,-100.00,North,-999,0.0,0.0,90,-99.99,,,0.00,,2013-01-28 03:52:00,
2013-01-27 21:01:00,32.0,29.0,-100.00,North,-999,0.0,0.0,90,-99.99,,,0.00,,2013-01-28 04:01:00,
2013-01-27 21:11:00,32.0,29.0,-100.00,North,-999,0.0,0.0,90,-99.99,,,0.00,,2013-01-28 04:11:00,
2013-01-27 21:21:00,32.0,29.0,-100.00,North,-999,0.0,0.0,90,-99.99,,,0.00,,2013-01-28 04:21:00,
2013-01-27 21:31:00,32.0,29.0,-100.00,North,-999,0.0,0.0,90,-99.99,,,0.00,,2013-01-28 04:31:00,
2013-01-27 21:41:00,32.0,29.0,-100.00,North,-999,0.0,0.0,90,-99.99,,,0.00,,2013-01-28 04:41:00,
2013-01-27 21:52:00,32.0,29.0,-100.00,North,-999,0.0,0.0,90,-99.99,,,0.00,,2013-01-28 04:52:00,
2013-01-27 22:03:00,32.0,29.0,-100.00,North,-999,0.0,0.0,90,-99.99,,,0.00,,2013-01-28 05:03:00,
2013-01-27 22:11:00,31.0,28.0,-100.00,North,-999,0.0,0.0,90,-99.99,,,0.00,,2013-01-28 05:11:00,
2013-01-27 22:21:00,31.0,28.0,-100.00,North,-999,0.0,0.0,90,-99.99,,,0.00,,2013-01-28 05:21:00,
2013-01-27 22:31:00,31.0,28.0,-100.00,North,-999,0.0,0.0,90,-99.99,,,0.00,,2013-01-28 05:31:00,
2013-01-27 22:41:00,31.0,28.0,-100.00,North,-999,0.0,0.0,90,-99.99,,,0.00,,2013-01-28 05:41:00,
2013-01-27 22:52:00,31.0,28.0,-100.00,North,-999,0.0,0.0,90,-99.99,,,0.00,,2013-01-28 05:52:00,
2013-01-27 23:02:00,31.0,28.0,-100.00,North,-999,0.0,0.0,90,-99.99,,,0.00,,2013-01-28 06:02:00,
2013-01-27 23:11:00,31.0,28.0,-100.00,North,-999,0.0,0.0,90,-99.99,,,0.00,,2013-01-28 06:11:00,
2013-01-27 23:21:00,31.0,28.0,-100.00,North,-999,0.0,0.0,90,-99.99,,,0.00,,2013-01-28 06:21:00,
2013-01-27 23:32:00,31.0,28.0,-100.00,North,-999,0.0,0.0,90,-99.99,,,0.00,,2013-01-28 06:32:00,
2013-01-27 23:42:00,31.0,28.0,-100.00,North,-999,0.0,0.0,90,-99.99,,,0.00,,2013-01-28 06:42:00,
2013-01-27 23:52:00,31.0,28.0,-100.00,North,-999,0.0,0.0,89,-99.99,,,0.00,,2013-01-28 06:52:00,